Location: Maiden
(35.5760°N, 81.2120°W)
Time: 03:18:08
(UTC-04:00)

Cosmos 1812 - Pass Details

Date: 02 August 2020
Orbit: 516 x 522 km, 82.5° (Epoch: 11 August)

Event Time Altitude Azimuth Distance (km) Brightness Sun altitude
Rises 23:03:33 0° 347° (NNW) 2,639 7.3 -26.5°
Reaches altitude 10° 23:05:43 10° 343° (NNW) 1,748 6.2 -26.8°
Enters shadow 23:08:26 39° 315° (NW) 786 4.0 -27.2°
